Погода в Кирове

Хотите узнать прогноз погоды в Кирове? Тогда Вам сюда: Погода в Кирове

Поиск расширенной информации на нашем сайте:

Полезная информация:

Новости сайта



02.01.2020
Опубликован Долгосрочный прогноз погоды по городам России и ближнего зарубежья на январь 2020 года.
Карты: Прогноз на январь и февраль 2020 года, Сравнение прогнозируемой аномалии приземной температуры воздуха на январь 2020 года по разным моделям.




Погода в Кирове - сегодня

Время (UTC), дата Ветер
(°,м/с) 
Видим.   Явления Облачность Т
(°С)
Тd
(°С)
f(%) Тe
(°С)
Pmin
(гПа)
dP
(гПа)
Po
(мм)
O2
(г/м3)
Тmin Tmax R s Состояние
почвы
06 05.04.20 300 (СЗ) 2-5{06}  20000 м    8/8 600 м 
[Sc]
+0.7 -4.8 67 1015.4  0.9  747  301           
09 05.04.20 310 (СЗ) 2-7{09}  20000 м    6/6 600 м кучево-дожд. 
[Cb calv]
+4.2 -10.4 34 +4  1015.2  747  297           
12 05.04.20 270 (З) 3-7{09}  20000 м  {ливн. осадки}  8/8 600 м кучево-дожд. 
[Cb calv]
+4.7 -10.2 33 +4  1015  -0.1  747  297           
15 05.04.20 тихо () -0{09}  20000 м  {ливн. осадки}  6/6 600 м кучево-дожд. 
[Cb calv]
+2.5 -7.4 48 +3  1015.2  747  299    +4.9  0.0     
18 05.04.20 тихо () -0{01}  20000 м  {ливн. осадки}  ясно 
-2.5 -5.5 80 -3  1015.5  -0.1  747  304           
21 05.04.20 010 (С) 1-1{01}  20000 м    ясно 
-4.7 -7.1 83 -4  1014.9  -0.7  746  307           
00 06.04.20 тихо () -0{02}  20000 м    8/3 600 м средняя, верхняя 
[Sc|Ac As|Ci fib]
-4.7 -6.7 86 -5  1014.3  -0.6  746  306           
03 06.04.20 010 (С) 2-3{03}  20000 м    10/10 600 м 
[Sc]
-2 -5.9 75 -3  1014.5  0.4  746  303  -5.5      мокрый или
старый снег
50-90% 
06 06.04.20 010 (С) 2-3{06}  2000 м  ливневой снег  10/10 300 м кучево-дожд. 
[Cb cap]
-2.3 -4.2 87 -3  1016  1.5  747  304           
09 06.04.20 010 (С) 3-6{08}  1000 м  ливневой снег  10/10 300 м кучево-дожд. 
[Cb cap]
-1.4 -2.9 89 -3  1017.3  1.3  748  303           
12 06.04.20 350 (С) 4-7{10}  1000 м  ливневой снег  10/10 300 м кучево-дожд. 
[Cb cap]
-1.6 -3.4 88 -4  1019.5  2.1  750  304           
15 06.04.20 340 (С) 2-4{07}  20000 м  {ливн. осадки}  9/8 600 м средняя 
[Sc|Ac trans]
-0.2 -7.4 58 -1  1021  1.6  751  303    +0.1     
18 06.04.20 320 (СЗ) 1-2{06}  20000 м  {ливн. осадки}  1/0 средняя 
[Ac As]
-3.1 -10.4 57 -3  1023.8  2.5  753  308           
21 06.04.20 310 (СЗ) 1-1{02}  20000 м    ясно 
-5.4 -11.6 62 -5  1025.6  1.6  754  311           
00 07.04.20 310 (СЗ) 1-3{03}  20000 м    ясно 
-6.8 -11.2 71 -6  1026.6  0.9  755  313           
03 07.04.20 310 (СЗ) 1-2{04}  20000 м    ясно 
-5.5 -11.2 64 -5  1027.5  755  312  -7.2      равномерный
мокрый или
старый снег
100% 
06 07.04.20 310 (СЗ) 2-6{07}  20000 м    ясно 
-0.1 -10.3 46 -1  1026.1  -1  755  305           
09 07.04.20 320 (СЗ) 3-7{08}  20000 м    9/9 600 м 
[Cu med, cong]
+1.6 -13.2 32 1024.3  -1.6  753  303           
12 07.04.20 310 (СЗ) 2-6{10}  20000 м    4/4 600 м 
[Cu med, cong]
+2.7 -14.6 27 +2  1022.6  -1.6  752  301           
15 07.04.20 320 (СЗ) 1-4{10}  20000 м    1/1 1000 м 
[Cu med, cong]
+2.2 -16.5 24 +3  1021.4  -1.3  751  302    +3.2       
18 07.04.20 300 (СЗ) 1-2{05}  20000 м    ясно 
-1.5 -15.8 33 -1  1020.9  -0.7  751  305           
21 07.04.20 тихо () -0{03}  20000 м    ясно 
-3.9 -15.1 41 -4  1020  -1.1  750  308           
00 08.04.20 тихо () -0{02}  20000 м    4/0 средняя 
[Ac trans]
-8 -13.7 64 -8  1018.5  -1.8  748  312           
03 08.04.20 220 (ЮЗ) 1-2{02}  20000 м    9/4 600 м средняя 
[Sc|Ac As]
-4.5 -12.3 54 -4  1016.2  -1.9  747  307  -8.2      мокрый или
старый снег
50-90% 
06 08.04.20 190 (Ю) 1-3{04}  20000 м    9/6 600 м средняя 
[Sc|Ac trans]
+0.6 -13.4 34 +1  1013.8  -2  746  301           
Время (UTC), дата Ветер
(°,м/с) 
Видим.   Явления Облачность Т
(°С)
Тd
(°С)
f(%) Тe
(°С)
Pmin
(гПа)
dP
(гПа)
Po
(мм)
O2
(г/м3)
Тmin Tmax R s Состояние
почвы

Для получения пояснительной информации подведите курсор к названию столбца.

ПОГОДА в Кирове - архив

Всё, что Вы хотите узнать о погоде в Кирове - удобно и подробно!

Выберите нужную дату (начиная с 1 января 2019* года) и нажмите кнопку "Найти".
Будут отображены архивные сводки погоды по пункту Киров, начиная с указанной даты.


Отображать данные в формате CSV (для использования в таблицах Excel)


Внимание! Наш архив погоды предназначен исключительно для личного некоммерческого использования в познавательных целях. Если Вам необходимы официальные справки о состоянии погоды (для производственных, юридических, коммерческих и т.п. целей), обращайтесь в органы Росгидромета.

*Примечание: данная дата относится к архиву по метеостанциям СССР (Россия, СНГ, Балтия).
Архив по метеостанциям Зарубежной Европы и Азии (кроме Китая) хранится 10 дней, по другим регионам земного шара (Китай, Африка, Америка, Австралия, Океания) - 1 день.

Киров - район местоположения метеостанции


Название, широта, долгота, высота метеостанции:
Киров 58.6°ш. 49.6°д. 158 м над ур. моря [Российская Федерация]

Дополнительная информация

В oтличие oт бoльшинства пoгoдных сайтoв мы публикуем пoдрoбную метеoинфoрмацию в детальнoм прoфессиoнальнoм фoрмате.

Характеристики температуры и влажнoсти вoздуха измеряются на высoте 2 м в тени вдали oт зданий и деревьев.
Скoрoсть ветра измеряется на высoте 10 м (на урoвне рoста челoвека скoрoсть ветра ниже в 1.5-2 раза). Если метеoстанция нахoдится в гoрoде или в лесу, тo скoрoсть ветра занижена на 2-4 м/с пo сравнению с oткрытым местoм. Скoрoсть ветра над акватoриями крупных рек и oзёр, а также на вершинах хoлмoв на 2-5 м/с выше, чем в oбычных услoвиях.
Атмoсфернoе давление в разных тoчках местнoсти мoжет значительнo oтличаться oт давления на метеoстанции, в зависимoсти oт услoвий рельефа (при пoдъёме на 10 м давление пoнижается примернo на 1 мм рт.ст.).